Location: Newark
(33.6333°S, 78.8500°W)
Time: 22:38:19
(UTC+00:00)

ISS - Visible Passes

Search period start: 23 September 2020 00:00
Search period end: 03 October 2020 00:00
Orbit: 419 x 420 km, 51.6° (Epoch: 24 September)

Date Brightness Start Highest point End Pass type
(mag) Time Alt. Az. Time Alt. Az. Time Alt. Az.
23 Sep -0.5 08:43:47 11° ENE 08:43:47 11° ENE 08:44:13 10° ENE visible
23 Sep -3.5 10:16:47 14° WNW 10:19:34 53° SW 10:22:56 10° SE visible
24 Sep -3.8 09:31:45 64° NNW 09:32:11 79° NE 09:35:37 10° SE visible
25 Sep -1.2 08:46:35 22° ESE 08:46:35 22° ESE 08:48:05 10° ESE visible
25 Sep -1.9 10:19:34 11° WSW 10:21:47 19° SSW 10:24:21 10° SSE visible
26 Sep -2.6 09:34:16 30° SW 09:34:16 30° SW 09:37:21 10° SSE visible
27 Sep -1.3 08:48:52 21° SSE 08:48:52 21° SSE 08:50:09 10° SE visible
28 Sep -1.4 09:36:21 13° SSW 09:36:35 13° SSW 09:38:15 10° S visible
29 Sep -0.9 08:50:47 13° S 08:50:47 13° S 08:51:29 10° SSE visible
